SAOCOM 1B (46265 NORAD) Tracking and Keplerian Element Data

This shows tracking and keplerian element data for the satellite.

Feedback or suggestion? Click here.




ElementValue
Catalog46265
NameSAOCOM 1B
Epoch Orbit360
Epoch Day268.2510452
Epoch Year2020
RAAN91.8671
Inclination97.8796
Eccentricity0.0002882
Argument of Perigee100.1904
Mean Anonmoly259.9629
Mean Motion14.8599867
Decay Rate-4.76E-06
L11 46265U 20059A 20268.25104520 -.00000476 00000-0 -48295-4 0 9997
L22 46265 97.8796 91.8671 0002882 100.1904 259.9629 14.85998670 3606

Live tracking and technical data element details for SAOCOM 1B (NORAD 46265). SAOCOM 1B can be tracked NOW for your location showing map with azimuth and elevation plus other details from your city location.

Track the satellite on the map from your city or location and see movement details for azimuth, elevation, latitude, longitude, range, height, and movement on the map or in text.







IsCatalogInMostPopularTable: catalog: 46265, numindb: 4
Update: records affected: 1



GetName: 46265 SAOCOM 1B

Hit Count: updated at: Mon, 28 Sep 2020 22:17:06 GMT